Time,TemperatureF,DewpointF,PressureIn,WindDirection,WindDirectionDegrees,WindSpeedMPH,WindSpeedGustMPH,Humidity,HourlyPrecipIn,Conditions,Clouds,dailyrainin,SoftwareType,DateUTC
2013-01-10 00:00:00,36.6,23.2,29.99,NE,50,0.0,0.0,58,0.00,,,0.00,Wunderground v.1.15,2013-01-10 07:00:00,
2013-01-10 00:05:00,36.4,23.0,29.99,NNE,29,0.0,0.0,58,0.00,,,0.00,Wunderground v.1.15,2013-01-10 07:05:00,
2013-01-10 00:15:00,36.9,22.2,29.98,ENE,59,1.0,3.0,55,0.00,,,0.00,Wunderground v.1.15,2013-01-10 07:15:00,
2013-01-10 00:20:00,38.5,22.8,29.98,NNE,31,1.0,1.0,53,0.00,,,0.00,Wunderground v.1.15,2013-01-10 07:20:00,
2013-01-10 00:25:00,38.8,22.2,29.98,NE,50,1.0,1.0,51,0.00,,,0.00,Wunderground v.1.15,2013-01-10 07:25:00,
2013-01-10 00:30:00,38.9,22.3,29.98,North,4,1.0,1.0,51,0.00,,,0.00,Wunderground v.1.15,2013-01-10 07:30:00,
2013-01-10 00:35:00,38.9,22.3,29.99,ESE,118,0.0,1.0,51,0.00,,,0.00,Wunderground v.1.15,2013-01-10 07:35:00,
2013-01-10 00:45:00,38.5,21.5,29.98,ESE,119,0.0,0.0,50,0.00,,,0.00,Wunderground v.1.15,2013-01-10 07:45:00,
2013-01-10 00:50:00,38.7,22.1,29.98,SE,139,0.0,0.0,51,0.00,,,0.00,Wunderground v.1.15,2013-01-10 07:50:00,
2013-01-10 00:55:00,38.5,22.4,29.98,SE,139,0.0,0.0,52,0.00,,,0.00,Wunderground v.1.15,2013-01-10 07:55:00,
2013-01-10 01:00:00,37.9,22.7,29.98,SE,139,0.0,0.0,54,0.00,,,0.00,Wunderground v.1.15,2013-01-10 08:00:00,
2013-01-10 01:10:00,36.6,21.9,29.97,WNW,290,1.0,1.0,55,0.00,,,0.00,Wunderground v.1.15,2013-01-10 08:10:00,
2013-01-10 01:15:00,36.6,22.4,29.97,SSE,150,1.0,4.0,56,0.00,,,0.00,Wunderground v.1.15,2013-01-10 08:15:00,
2013-01-10 01:20:00,37.1,22.4,29.98,ESE,118,1.0,1.0,55,0.00,,,0.00,Wunderground v.1.15,2013-01-10 08:20:00,
2013-01-10 01:25:00,37.4,22.3,29.97,ESE,119,1.0,1.0,54,0.00,,,0.00,Wunderground v.1.15,2013-01-10 08:25:00,
2013-01-10 01:30:00,37.1,22.8,29.97,ESE,114,0.0,0.0,56,0.00,,,0.00,Wunderground v.1.15,2013-01-10 08:30:00,
2013-01-10 01:35:00,36.6,22.8,29.97,ESE,114,0.0,0.0,57,0.00,,,0.00,Wunderground v.1.15,2013-01-10 08:35:00,
2013-01-10 01:45:00,35.9,22.5,29.96,East,84,0.0,0.0,58,0.00,,,0.00,Wunderground v.1.15,2013-01-10 08:45:00,
2013-01-10 01:50:00,36.0,22.2,29.96,East,83,0.0,1.0,57,0.00,,,0.00,Wunderground v.1.15,2013-01-10 08:50:00,
2013-01-10 01:55:00,36.9,22.2,29.96,East,92,1.0,1.0,55,0.00,,,0.00,Wunderground v.1.15,2013-01-10 08:55:00,
2013-01-10 02:00:00,36.8,22.6,29.96,East,79,0.0,0.0,56,0.00,,,0.00,Wunderground v.1.15,2013-01-10 09:00:00,
2013-01-10 02:05:00,36.6,22.4,29.95,NE,41,0.0,0.0,56,0.00,,,0.00,Wunderground v.1.15,2013-01-10 09:05:00,
2013-01-10 02:15:00,36.8,22.1,29.95,SE,129,1.0,1.0,55,0.00,,,0.00,Wunderground v.1.15,2013-01-10 09:15:00,
2013-01-10 02:20:00,36.7,22.0,29.95,South,187,0.0,1.0,55,0.00,,,0.00,Wunderground v.1.15,2013-01-10 09:20:00,
2013-01-10 02:25:00,36.9,21.8,29.95,NE,50,0.0,1.0,54,0.00,,,0.00,Wunderground v.1.15,2013-01-10 09:25:00,
2013-01-10 02:30:00,37.3,21.7,29.95,South,191,1.0,1.0,53,0.00,,,0.00,Wunderground v.1.15,2013-01-10 09:30:00,
2013-01-10 02:40:00,37.5,21.9,29.95,South,184,0.0,0.0,53,0.00,,,0.00,Wunderground v.1.15,2013-01-10 09:40:00,
2013-01-10 02:45:00,37.0,21.9,29.94,SSE,155,0.0,0.0,54,0.00,,,0.00,Wunderground v.1.15,2013-01-10 09:45:00,
2013-01-10 02:50:00,36.5,21.8,29.95,SSE,153,0.0,0.0,55,0.00,,,0.00,Wunderground v.1.15,2013-01-10 09:50:00,
2013-01-10 03:00:00,35.4,22.1,29.94,East,98,0.0,0.0,58,0.00,,,0.00,Wunderground v.1.15,2013-01-10 10:00:00,
2013-01-10 03:05:00,35.1,22.2,29.94,East,97,0.0,0.0,59,0.00,,,0.00,Wunderground v.1.15,2013-01-10 10:05:00,
2013-01-10 03:10:00,34.4,21.9,29.93,SSE,156,0.0,0.0,60,0.00,,,0.00,Wunderground v.1.15,2013-01-10 10:10:00,
2013-01-10 03:15:00,34.0,22.3,29.94,ENE,78,0.0,0.0,62,0.00,,,0.00,Wunderground v.1.15,2013-01-10 10:15:00,
2013-01-10 03:20:00,33.5,22.6,29.93,SSW,195,0.0,2.0,64,0.00,,,0.00,Wunderground v.1.15,2013-01-10 10:20:00,
2013-01-10 03:25:00,33.1,22.6,29.94,SSW,206,0.0,2.0,65,0.00,,,0.00,Wunderground v.1.15,2013-01-10 10:25:00,
2013-01-10 03:30:00,32.9,22.4,29.93,South,177,0.0,2.0,65,0.00,,,0.00,Wunderground v.1.15,2013-01-10 10:30:00,
2013-01-10 03:40:00,32.9,22.4,29.93,South,191,0.0,0.0,65,0.00,,,0.00,Wunderground v.1.15,2013-01-10 10:40:00,
2013-01-10 03:45:00,32.5,22.4,29.93,SE,129,0.0,0.0,66,0.00,,,0.00,Wunderground v.1.15,2013-01-10 10:45:00,
2013-01-10 03:50:00,32.4,22.3,29.93,SE,129,0.0,0.0,66,0.00,,,0.00,Wunderground v.1.15,2013-01-10 10:50:00,
2013-01-10 03:55:00,32.1,22.4,29.93,SE,132,0.0,0.0,67,0.00,,,0.00,Wunderground v.1.15,2013-01-10 10:55:00,
2013-01-10 04:05:00,31.8,22.4,29.93,NE,51,0.0,1.0,68,0.00,,,0.00,Wunderground v.1.15,2013-01-10 11:05:00,
2013-01-10 04:10:00,32.1,22.4,29.93,NE,50,0.0,0.0,67,0.00,,,0.00,Wunderground v.1.15,2013-01-10 11:10:00,
2013-01-10 04:15:00,31.8,22.4,29.93,NE,49,0.0,0.0,68,0.00,,,0.00,Wunderground v.1.15,2013-01-10 11:15:00,
2013-01-10 04:20:00,31.4,22.1,29.93,NE,50,0.0,0.0,68,0.00,,,0.00,Wunderground v.1.15,2013-01-10 11:20:00,
2013-01-10 04:25:00,31.3,22.6,29.93,NE,49,0.0,0.0,70,0.00,,,0.00,Wunderground v.1.15,2013-01-10 11:25:00,
2013-01-10 04:35:00,32.1,22.7,29.93,NE,46,0.0,0.0,68,0.00,,,0.00,Wunderground v.1.15,2013-01-10 11:35:00,
2013-01-10 04:40:00,32.1,22.7,29.93,NE,44,0.0,0.0,68,0.00,,,0.00,Wunderground v.1.15,2013-01-10 11:40:00,
2013-01-10 04:45:00,31.8,22.4,29.93,East,94,0.0,0.0,68,0.00,,,0.00,Wunderground v.1.15,2013-01-10 11:45:00,
2013-01-10 04:50:00,32.3,22.9,29.92,East,95,0.0,0.0,68,0.00,,,0.00,Wunderground v.1.15,2013-01-10 11:50:00,
2013-01-10 04:55:00,32.5,22.8,29.93,ENE,75,0.0,0.0,67,0.00,,,0.00,Wunderground v.1.15,2013-01-10 11:55:00,
2013-01-10 05:05:00,32.5,22.8,29.93,NNE,29,0.0,0.0,67,0.00,,,0.00,Wunderground v.1.15,2013-01-10 12:05:00,
2013-01-10 05:10:00,32.5,23.1,29.93,NNE,29,0.0,0.0,68,0.00,,,0.00,Wunderground v.1.15,2013-01-10 12:10:00,
2013-01-10 05:20:00,32.8,23.0,29.92,NNE,29,0.0,0.0,67,0.00,,,0.00,Wunderground v.1.15,2013-01-10 12:20:00,
2013-01-10 05:25:00,34.0,23.1,29.92,NNW,338,0.0,0.0,64,0.00,,,0.00,Wunderground v.1.15,2013-01-10 12:25:00,
2013-01-10 05:35:00,36.0,23.0,29.92,SE,133,0.0,0.0,59,0.00,,,0.00,Wunderground v.1.15,2013-01-10 12:35:00,
2013-01-10 05:40:00,36.4,23.4,29.92,South,174,0.0,0.0,59,0.00,,,0.00,Wunderground v.1.15,2013-01-10 12:40:00,
2013-01-10 05:45:00,36.1,23.1,29.92,South,176,0.0,0.0,59,0.00,,,0.00,Wunderground v.1.15,2013-01-10 12:45:00,
2013-01-10 05:55:00,35.2,23.5,29.92,South,176,0.0,0.0,62,0.00,,,0.00,Wunderground v.1.15,2013-01-10 12:55:00,
2013-01-10 06:00:00,34.5,22.8,29.93,South,176,0.0,0.0,62,0.00,,,0.00,Wunderground v.1.15,2013-01-10 13:00:00,
2013-01-10 06:05:00,34.0,22.7,29.92,South,176,0.0,0.0,63,0.00,,,0.00,Wunderground v.1.15,2013-01-10 13:05:00,
2013-01-10 06:10:00,33.7,23.2,29.92,South,176,0.0,0.0,65,0.00,,,0.00,Wunderground v.1.15,2013-01-10 13:10:00,
2013-01-10 06:15:00,33.3,23.2,29.92,South,170,0.0,0.0,66,0.00,,,0.00,Wunderground v.1.15,2013-01-10 13:15:00,
2013-01-10 06:25:00,32.2,23.2,29.92,ENE,76,0.0,0.0,69,0.00,,,0.00,Wunderground v.1.15,2013-01-10 13:25:00,
2013-01-10 06:30:00,31.9,22.9,29.92,ENE,77,0.0,0.0,69,0.00,,,0.00,Wunderground v.1.15,2013-01-10 13:30:00,
2013-01-10 06:35:00,31.7,22.7,29.92,ENE,77,0.0,0.0,69,0.00,,,0.00,Wunderground v.1.15,2013-01-10 13:35:00,
2013-01-10 06:40:00,31.4,22.7,29.92,ENE,76,0.0,0.0,70,0.00,,,0.00,Wunderground v.1.15,2013-01-10 13:40:00,
2013-01-10 06:50:00,33.0,22.5,29.92,ESE,103,0.0,0.0,65,0.00,,,0.00,Wunderground v.1.15,2013-01-10 13:50:00,
2013-01-10 06:55:00,33.2,23.1,29.92,ESE,103,0.0,0.0,66,0.00,,,0.00,Wunderground v.1.15,2013-01-10 13:55:00,
2013-01-10 07:00:00,32.4,23.0,29.92,ENE,63,0.0,0.0,68,0.00,,,0.00,Wunderground v.1.15,2013-01-10 14:00:00,
2013-01-10 07:05:00,31.9,22.9,29.92,ENE,63,0.0,0.0,69,0.00,,,0.00,Wunderground v.1.15,2013-01-10 14:05:00,
2013-01-10 07:15:00,31.4,22.7,29.92,ENE,62,0.0,0.0,70,0.00,,,0.00,Wunderground v.1.15,2013-01-10 14:15:00,
2013-01-10 07:20:00,31.5,23.2,29.92,ENE,63,0.0,0.0,71,0.00,,,0.00,Wunderground v.1.15,2013-01-10 14:20:00,
2013-01-10 07:25:00,31.6,23.3,29.93,ENE,65,0.0,0.0,71,0.00,,,0.00,Wunderground v.1.15,2013-01-10 14:25:00,
2013-01-10 07:30:00,31.5,23.5,29.93,SSE,158,0.0,0.0,72,0.00,,,0.00,Wunderground v.1.15,2013-01-10 14:30:00,
2013-01-10 07:40:00,32.0,23.7,29.93,NE,47,0.0,0.0,71,0.00,,,0.00,Wunderground v.1.15,2013-01-10 14:40:00,
2013-01-10 07:45:00,32.4,23.7,29.93,ESE,106,0.0,0.0,70,0.00,,,0.00,Wunderground v.1.15,2013-01-10 14:45:00,
2013-01-10 07:50:00,32.6,23.9,29.93,ESE,106,0.0,0.0,70,0.00,,,0.00,Wunderground v.1.15,2013-01-10 14:50:00,
2013-01-10 07:55:00,33.1,24.4,29.93,ESE,108,0.0,0.0,70,0.00,,,0.00,Wunderground v.1.15,2013-01-10 14:55:00,
2013-01-10 08:00:00,33.7,24.6,29.93,South,176,0.0,0.0,69,0.00,,,0.00,Wunderground v.1.15,2013-01-10 15:00:00,
2013-01-10 08:10:00,34.7,24.9,29.94,SW,218,0.0,0.0,67,0.00,,,0.00,Wunderground v.1.15,2013-01-10 15:10:00,
2013-01-10 08:20:00,35.3,25.4,29.94,SSW,211,0.0,0.0,67,0.00,,,0.00,Wunderground v.1.15,2013-01-10 15:20:00,
2013-01-10 08:25:00,35.6,25.4,29.94,ESE,102,0.0,0.0,66,0.00,,,0.00,Wunderground v.1.15,2013-01-10 15:25:00,
2013-01-10 08:35:00,36.6,25.2,29.95,NE,55,0.0,0.0,63,0.00,,,0.00,Wunderground v.1.15,2013-01-10 15:35:00,
2013-01-10 08:40:00,37.3,25.8,29.95,NE,52,0.0,0.0,63,0.00,,,0.00,Wunderground v.1.15,2013-01-10 15:40:00,
2013-01-10 08:45:00,38.1,25.8,29.95,NE,44,0.0,1.0,61,0.00,,,0.00,Wunderground v.1.15,2013-01-10 15:45:00,
2013-01-10 08:55:00,39.8,25.8,29.94,NE,44,1.0,1.0,57,0.00,,,0.00,Wunderground v.1.15,2013-01-10 15:55:00,
2013-01-10 09:00:00,40.6,27.0,29.94,NE,44,0.0,0.0,58,0.00,,,0.00,Wunderground v.1.15,2013-01-10 16:00:00,
2013-01-10 09:05:00,41.2,26.2,29.93,NE,44,0.0,1.0,55,0.00,,,0.00,Wunderground v.1.15,2013-01-10 16:05:00,
2013-01-10 09:10:00,42.0,26.5,29.94,SE,131,1.0,1.0,54,0.00,,,0.00,Wunderground v.1.15,2013-01-10 16:10:00,
2013-01-10 09:15:00,42.3,26.4,29.92,NE,54,1.0,1.0,53,0.00,,,0.00,Wunderground v.1.15,2013-01-10 16:15:00,
2013-01-10 09:25:00,43.1,27.1,29.92,NE,50,1.0,1.0,53,0.00,,,0.00,Wunderground v.1.15,2013-01-10 16:25:00,
2013-01-10 09:30:00,43.2,26.3,29.92,NE,50,0.0,0.0,51,0.00,,,0.00,Wunderground v.1.15,2013-01-10 16:30:00,
2013-01-10 09:35:00,43.5,27.5,29.91,NE,45,0.0,0.0,53,0.00,,,0.00,Wunderground v.1.15,2013-01-10 16:35:00,
2013-01-10 09:40:00,43.6,27.1,29.91,South,188,0.0,0.0,52,0.00,,,0.00,Wunderground v.1.15,2013-01-10 16:40:00,
2013-01-10 09:45:00,44.0,27.0,29.90,NE,45,0.0,1.0,51,0.00,,,0.00,Wunderground v.1.15,2013-01-10 16:45:00,
2013-01-10 09:55:00,44.8,28.2,29.92,North,8,0.0,0.0,52,0.00,,,0.00,Wunderground v.1.15,2013-01-10 16:55:00,
2013-01-10 10:00:00,45.4,27.8,29.92,North,8,0.0,0.0,50,0.00,,,0.00,Wunderground v.1.15,2013-01-10 17:00:00,
2013-01-10 10:05:00,46.2,27.6,29.91,ESE,117,0.0,0.0,48,0.00,,,0.00,Wunderground v.1.15,2013-01-10 17:05:00,
2013-01-10 10:10:00,47.1,27.9,29.90,WSW,254,1.0,1.0,47,0.00,,,0.00,Wunderground v.1.15,2013-01-10 17:10:00,
2013-01-10 10:15:00,47.6,27.8,29.90,South,179,1.0,3.0,46,0.00,,,0.00,Wunderground v.1.15,2013-01-10 17:15:00,
2013-01-10 10:25:00,47.4,27.6,29.90,SW,226,1.0,1.0,46,0.00,,,0.00,Wunderground v.1.15,2013-01-10 17:25:00,
2013-01-10 10:30:00,47.5,27.7,29.90,SW,233,1.0,1.0,46,0.00,,,0.00,Wunderground v.1.15,2013-01-10 17:30:00,
2013-01-10 10:35:00,48.1,27.7,29.91,SW,236,1.0,1.0,45,0.00,,,0.00,Wunderground v.1.15,2013-01-10 17:35:00,
2013-01-10 10:40:00,49.0,26.9,29.91,SW,224,1.0,1.0,42,0.00,,,0.00,Wunderground v.1.15,2013-01-10 17:40:00,
2013-01-10 10:45:00,49.9,27.1,29.90,SW,225,1.0,1.0,41,0.00,,,0.00,Wunderground v.1.15,2013-01-10 17:45:00,
2013-01-10 10:55:00,51.8,25.7,29.88,SE,137,1.0,1.0,36,0.00,,,0.00,Wunderground v.1.15,2013-01-10 17:55:00,
2013-01-10 11:00:00,52.4,27.5,29.87,SW,221,0.0,2.0,38,0.00,,,0.00,Wunderground v.1.15,2013-01-10 18:00:00,
2013-01-10 11:05:00,53.3,27.0,29.87,SSW,201,0.0,2.0,36,0.00,,,0.00,Wunderground v.1.15,2013-01-10 18:05:00,
2013-01-10 11:15:00,54.7,25.4,29.86,SSW,204,0.0,0.0,32,0.00,,,0.00,Wunderground v.1.15,2013-01-10 18:15:00,
2013-01-10 11:20:00,55.5,26.8,29.86,NE,44,0.0,0.0,33,0.00,,,0.00,Wunderground v.1.15,2013-01-10 18:20:00,
2013-01-10 11:25:00,56.5,26.2,29.85,North,8,0.0,0.0,31,0.00,,,0.00,Wunderground v.1.15,2013-01-10 18:25:00,
2013-01-10 11:30:00,58.2,26.9,29.85,NW,307,0.0,2.0,30,0.00,,,0.00,Wunderground v.1.15,2013-01-10 18:30:00,
2013-01-10 11:35:00,60.0,26.8,29.85,WNW,288,1.0,2.0,28,0.00,,,0.00,Wunderground v.1.15,2013-01-10 18:35:00,
2013-01-10 11:45:00,62.4,25.1,29.84,NW,320,0.0,1.0,24,0.00,,,0.00,Wunderground v.1.15,2013-01-10 18:45:00,
2013-01-10 11:50:00,63.4,25.9,29.83,WNW,301,0.0,0.0,24,0.00,,,0.00,Wunderground v.1.15,2013-01-10 18:50:00,
2013-01-10 11:55:00,64.1,25.5,29.84,WNW,295,1.0,1.0,23,0.00,,,0.00,Wunderground v.1.15,2013-01-10 18:55:00,
2013-01-10 12:00:00,64.8,21.5,29.84,NW,306,2.0,4.0,19,0.00,,,0.00,Wunderground v.1.15,2013-01-10 19:00:00,
2013-01-10 12:05:00,65.5,22.1,29.84,West,263,3.0,4.0,19,0.00,,,0.00,Wunderground v.1.15,2013-01-10 19:05:00,
2013-01-10 12:15:00,66.1,21.3,29.82,East,89,1.0,2.0,18,0.00,,,0.00,Wunderground v.1.15,2013-01-10 19:15:00,
2013-01-10 12:20:00,66.0,22.5,29.83,West,276,1.0,2.0,19,0.00,,,0.00,Wunderground v.1.15,2013-01-10 19:20:00,
2013-01-10 12:30:00,65.6,22.2,29.83,West,278,2.0,2.0,19,0.00,,,0.00,Wunderground v.1.15,2013-01-10 19:30:00,
2013-01-10 12:35:00,65.7,22.3,29.83,West,262,3.0,4.0,19,0.00,,,0.00,Wunderground v.1.15,2013-01-10 19:35:00,
2013-01-10 12:45:00,65.3,21.9,29.82,WNW,288,2.0,3.0,19,0.00,,,0.00,Wunderground v.1.15,2013-01-10 19:45:00,
2013-01-10 12:50:00,65.0,22.9,29.82,West,271,2.0,2.0,20,0.00,,,0.00,Wunderground v.1.15,2013-01-10 19:50:00,
2013-01-10 12:55:00,65.1,21.8,29.82,West,280,3.0,3.0,19,0.00,,,0.00,Wunderground v.1.15,2013-01-10 19:55:00,
2013-01-10 13:05:00,65.2,23.1,29.81,NW,304,1.0,2.0,20,0.00,,,0.00,Wunderground v.1.15,2013-01-10 20:05:00,
2013-01-10 13:10:00,64.9,22.8,29.80,WNW,299,1.0,1.0,20,0.00,,,0.00,Wunderground v.1.15,2013-01-10 20:10:00,
2013-01-10 13:15:00,64.9,21.6,29.80,WNW,297,0.0,1.0,19,0.00,,,0.00,Wunderground v.1.15,2013-01-10 20:15:00,
2013-01-10 13:20:00,64.7,21.4,29.80,NE,55,0.0,0.0,19,0.00,,,0.00,Wunderground v.1.15,2013-01-10 20:20:00,
2013-01-10 13:25:00,64.7,22.7,29.80,West,264,0.0,3.0,20,0.00,,,0.00,Wunderground v.1.15,2013-01-10 20:25:00,
2013-01-10 13:35:00,64.7,21.4,29.80,WNW,296,1.0,1.0,19,0.00,,,0.00,Wunderground v.1.15,2013-01-10 20:35:00,
2013-01-10 13:40:00,64.9,21.6,29.80,WSW,245,1.0,1.0,19,0.00,,,0.00,Wunderground v.1.15,2013-01-10 20:40:00,
2013-01-10 13:45:00,65.2,23.1,29.80,WSW,250,1.0,1.0,20,0.00,,,0.00,Wunderground v.1.15,2013-01-10 20:45:00,
2013-01-10 13:50:00,65.6,22.2,29.79,SW,228,1.0,1.0,19,0.00,,,0.00,Wunderground v.1.15,2013-01-10 20:50:00,
2013-01-10 13:55:00,65.8,23.6,29.79,SSW,204,2.0,2.0,20,0.00,,,0.00,Wunderground v.1.15,2013-01-10 20:55:00,
2013-01-10 14:05:00,67.1,23.4,29.78,SE,132,2.0,2.0,19,0.00,,,0.00,Wunderground v.1.15,2013-01-10 21:05:00,
2013-01-10 14:10:00,67.4,23.7,29.77,ESE,113,2.0,2.0,19,0.00,,,0.00,Wunderground v.1.15,2013-01-10 21:10:00,
2013-01-10 14:15:00,67.8,22.7,29.77,SSW,201,2.0,2.0,18,0.00,,,0.00,Wunderground v.1.15,2013-01-10 21:15:00,
2013-01-10 14:20:00,67.4,23.7,29.77,West,280,3.0,5.0,19,0.00,,,0.00,Wunderground v.1.15,2013-01-10 21:20:00,
2013-01-10 14:30:00,66.5,24.2,29.77,SSW,204,3.0,3.0,20,0.00,,,0.00,Wunderground v.1.15,2013-01-10 21:30:00,
2013-01-10 14:35:00,66.2,22.7,29.77,South,183,3.0,4.0,19,0.00,,,0.00,Wunderground v.1.15,2013-01-10 21:35:00,
2013-01-10 14:40:00,65.8,23.6,29.78,WSW,238,5.0,7.0,20,0.00,,,0.00,Wunderground v.1.15,2013-01-10 21:40:00,
2013-01-10 14:45:00,65.6,23.4,29.78,WSW,249,4.0,7.0,20,0.00,,,0.00,Wunderground v.1.15,2013-01-10 21:45:00,
2013-01-10 14:50:00,65.5,23.3,29.78,SW,228,4.0,5.0,20,0.00,,,0.00,Wunderground v.1.15,2013-01-10 21:50:00,
2013-01-10 15:00:00,65.4,23.2,29.78,South,183,4.0,4.0,20,0.00,,,0.00,Wunderground v.1.15,2013-01-10 22:00:00,
2013-01-10 15:05:00,65.5,23.3,29.78,West,277,4.0,6.0,20,0.00,,,0.00,Wunderground v.1.15,2013-01-10 22:05:00,
2013-01-10 15:10:00,65.5,23.3,29.78,WSW,257,5.0,5.0,20,0.00,,,0.00,Wunderground v.1.15,2013-01-10 22:10:00,
2013-01-10 15:20:00,65.6,22.2,29.78,WSW,246,5.0,5.0,19,0.00,,,0.00,Wunderground v.1.15,2013-01-10 22:20:00,
2013-01-10 15:30:00,65.5,23.3,29.77,West,277,4.0,4.0,20,0.00,,,0.00,Wunderground v.1.15,2013-01-10 22:30:00,
2013-01-10 15:35:00,65.4,22.0,29.77,WSW,253,3.0,4.0,19,0.00,,,0.00,Wunderground v.1.15,2013-01-10 22:35:00,
2013-01-10 15:40:00,65.2,23.1,29.78,WSW,250,3.0,3.0,20,0.00,,,0.00,Wunderground v.1.15,2013-01-10 22:40:00,
2013-01-10 15:50:00,65.1,23.0,29.77,WNW,290,3.0,3.0,20,0.00,,,0.00,Wunderground v.1.15,2013-01-10 22:50:00,
2013-01-10 15:55:00,64.9,21.6,29.77,SW,218,3.0,4.0,19,0.00,,,0.00,Wunderground v.1.15,2013-01-10 22:55:00,
2013-01-10 16:00:00,64.8,22.7,29.78,WSW,257,3.0,3.0,20,0.00,,,0.00,Wunderground v.1.15,2013-01-10 23:00:00,
2013-01-10 16:05:00,64.7,22.7,29.77,West,269,3.0,3.0,20,0.00,,,0.00,Wunderground v.1.15,2013-01-10 23:05:00,
2013-01-10 16:10:00,64.4,22.4,29.78,SW,229,3.0,3.0,20,0.00,,,0.00,Wunderground v.1.15,2013-01-10 23:10:00,
2013-01-10 16:20:00,64.2,23.4,29.78,WSW,238,2.0,2.0,21,0.00,,,0.00,Wunderground v.1.15,2013-01-10 23:20:00,
2013-01-10 16:25:00,64.1,22.2,29.78,WSW,243,3.0,3.0,20,0.00,,,0.00,Wunderground v.1.15,2013-01-10 23:25:00,
2013-01-10 16:30:00,64.3,22.3,29.78,WSW,249,3.0,3.0,20,0.00,,,0.00,Wunderground v.1.15,2013-01-10 23:30:00,
2013-01-10 16:35:00,64.4,22.4,29.78,SSE,166,4.0,6.0,20,0.00,,,0.00,Wunderground v.1.15,2013-01-10 23:35:00,
2013-01-10 16:45:00,64.3,23.5,29.77,SW,218,4.0,4.0,21,0.00,,,0.00,Wunderground v.1.15,2013-01-10 23:45:00,
2013-01-10 16:50:00,64.2,23.4,29.77,West,260,3.0,3.0,21,0.00,,,0.00,Wunderground v.1.15,2013-01-10 23:50:00,
2013-01-10 16:55:00,63.9,23.2,29.77,West,271,2.0,3.0,21,0.00,,,0.00,Wunderground v.1.15,2013-01-10 23:55:00,
2013-01-10 17:00:00,63.6,24.0,29.77,WNW,288,1.0,1.0,22,0.00,,,0.00,Wunderground v.1.15,2013-01-11 00:00:00,
2013-01-10 17:05:00,63.3,23.8,29.77,WNW,299,1.0,1.0,22,0.00,,,0.00,Wunderground v.1.15,2013-01-11 00:05:00,
2013-01-10 17:15:00,62.6,23.2,29.78,WNW,287,1.0,2.0,22,0.00,,,0.00,Wunderground v.1.15,2013-01-11 00:15:00,
2013-01-10 17:20:00,62.8,23.3,29.78,NW,319,2.0,4.0,22,0.00,,,0.00,Wunderground v.1.15,2013-01-11 00:20:00,
2013-01-10 17:25:00,62.9,22.3,29.77,WNW,297,3.0,4.0,21,0.00,,,0.00,Wunderground v.1.15,2013-01-11 00:25:00,
2013-01-10 17:30:00,63.0,22.4,29.76,WNW,301,3.0,3.0,21,0.00,,,0.00,Wunderground v.1.15,2013-01-11 00:30:00,
2013-01-10 17:35:00,63.0,23.5,29.76,NW,309,2.0,3.0,22,0.00,,,0.00,Wunderground v.1.15,2013-01-11 00:35:00,
2013-01-10 17:45:00,62.2,21.7,29.76,WNW,295,1.0,2.0,21,0.00,,,0.00,Wunderground v.1.15,2013-01-11 00:45:00,
2013-01-10 17:50:00,62.2,21.7,29.75,NW,307,1.0,1.0,21,0.00,,,0.00,Wunderground v.1.15,2013-01-11 00:50:00,
2013-01-10 17:55:00,61.8,22.5,29.75,NW,304,1.0,1.0,22,0.00,,,0.00,Wunderground v.1.15,2013-01-11 00:55:00,
2013-01-10 18:00:00,61.0,23.9,29.74,NNW,348,0.0,0.0,24,0.00,,,0.00,Wunderground v.1.15,2013-01-11 01:00:00,
2013-01-10 18:10:00,60.8,23.7,29.74,WNW,287,0.0,0.0,24,0.00,,,0.00,Wunderground v.1.15,2013-01-11 01:10:00,
2013-01-10 18:15:00,60.8,22.7,29.74,NW,308,1.0,1.0,23,0.00,,,0.00,Wunderground v.1.15,2013-01-11 01:15:00,
2013-01-10 18:20:00,60.7,24.6,29.73,NNW,346,0.0,0.0,25,0.00,,,0.00,Wunderground v.1.15,2013-01-11 01:20:00,
2013-01-10 18:25:00,59.8,24.8,29.73,NNW,338,0.0,0.0,26,0.00,,,0.00,Wunderground v.1.15,2013-01-11 01:25:00,
2013-01-10 18:35:00,58.9,24.0,29.73,ENE,60,0.0,1.0,26,0.00,,,0.00,Wunderground v.1.15,2013-01-11 01:35:00,
2013-01-10 18:40:00,58.9,24.0,29.73,NE,46,1.0,1.0,26,0.00,,,0.00,Wunderground v.1.15,2013-01-11 01:40:00,
2013-01-10 18:45:00,58.8,23.9,29.73,NE,41,1.0,1.0,26,0.00,,,0.00,Wunderground v.1.15,2013-01-11 01:45:00,
2013-01-10 18:50:00,58.9,23.1,29.73,NNW,337,1.0,3.0,25,0.00,,,0.00,Wunderground v.1.15,2013-01-11 01:50:00,
2013-01-10 19:00:00,60.1,24.1,29.72,NW,307,1.0,1.0,25,0.00,,,0.00,Wunderground v.1.15,2013-01-11 02:00:00,
2013-01-10 19:10:00,59.6,24.6,29.72,NW,311,0.0,0.0,26,0.00,,,0.00,Wunderground v.1.15,2013-01-11 02:10:00,
2013-01-10 19:15:00,59.5,23.6,29.72,WNW,303,1.0,1.0,25,0.00,,,0.00,Wunderground v.1.15,2013-01-11 02:15:00,
2013-01-10 19:25:00,58.9,24.0,29.71,SW,214,0.0,1.0,26,0.00,,,0.00,Wunderground v.1.15,2013-01-11 02:25:00,
2013-01-10 19:30:00,58.6,23.8,29.72,SW,214,0.0,0.0,26,0.00,,,0.00,Wunderground v.1.15,2013-01-11 02:30:00,
2013-01-10 19:35:00,58.0,25.0,29.72,SW,214,0.0,0.0,28,0.00,,,0.00,Wunderground v.1.15,2013-01-11 02:35:00,
2013-01-10 19:45:00,57.1,25.9,29.71,South,170,0.0,0.0,30,0.00,,,0.00,Wunderground v.1.15,2013-01-11 02:45:00,
2013-01-10 19:50:00,56.4,27.6,29.71,South,170,0.0,0.0,33,0.00,,,0.00,Wunderground v.1.15,2013-01-11 02:50:00,
2013-01-10 19:55:00,55.6,26.9,29.72,East,84,0.0,0.0,33,0.00,,,0.00,Wunderground v.1.15,2013-01-11 02:55:00,
2013-01-10 20:05:00,55.9,26.4,29.72,NE,48,1.0,1.0,32,0.00,,,0.00,Wunderground v.1.15,2013-01-11 03:05:00,
2013-01-10 20:10:00,55.4,26.0,29.72,NE,42,0.0,0.0,32,0.00,,,0.00,Wunderground v.1.15,2013-01-11 03:10:00,
2013-01-10 20:15:00,56.0,25.0,29.72,NE,43,0.0,0.0,30,0.00,,,0.00,Wunderground v.1.15,2013-01-11 03:15:00,
2013-01-10 20:20:00,56.6,26.3,29.73,East,95,0.0,0.0,31,0.00,,,0.00,Wunderground v.1.15,2013-01-11 03:20:00,
2013-01-10 20:30:00,57.2,24.3,29.72,NE,44,1.0,1.0,28,0.00,,,0.00,Wunderground v.1.15,2013-01-11 03:30:00,
2013-01-10 20:35:00,57.0,25.0,29.72,NE,44,1.0,1.0,29,0.00,,,0.00,Wunderground v.1.15,2013-01-11 03:35:00,
2013-01-10 20:40:00,56.5,24.6,29.73,NNE,27,0.0,0.0,29,0.00,,,0.00,Wunderground v.1.15,2013-01-11 03:40:00,
2013-01-10 20:55:00,55.2,25.1,29.73,NW,308,0.0,0.0,31,0.00,,,0.00,Wunderground v.1.15,2013-01-11 03:55:00,
2013-01-10 21:00:00,55.8,24.8,29.73,NW,321,0.0,0.0,30,0.00,,,0.00,Wunderground v.1.15,2013-01-11 04:00:00,
2013-01-10 21:05:00,56.5,23.7,29.72,SW,228,1.0,2.0,28,0.00,,,0.00,Wunderground v.1.15,2013-01-11 04:05:00,
2013-01-10 21:15:00,57.9,21.3,29.72,West,280,2.0,6.0,24,0.00,,,0.00,Wunderground v.1.15,2013-01-11 04:15:00,
2013-01-10 21:20:00,58.9,20.1,29.72,West,275,5.0,5.0,22,0.00,,,0.00,Wunderground v.1.15,2013-01-11 04:20:00,
2013-01-10 21:25:00,59.2,20.3,29.72,West,263,6.0,6.0,22,0.00,,,0.00,Wunderground v.1.15,2013-01-11 04:25:00,
2013-01-10 21:35:00,59.3,20.4,29.73,West,271,5.0,7.0,22,0.00,,,0.00,Wunderground v.1.15,2013-01-11 04:35:00,
2013-01-10 21:40:00,59.4,20.5,29.73,WNW,282,6.0,11.0,22,0.00,,,0.00,Wunderground v.1.15,2013-01-11 04:40:00,
2013-01-10 21:45:00,59.5,20.6,29.73,WSW,255,7.0,13.0,22,0.00,,,0.00,Wunderground v.1.15,2013-01-11 04:45:00,
2013-01-10 21:50:00,59.5,20.6,29.74,South,186,9.0,9.0,22,0.00,,,0.00,Wunderground v.1.15,2013-01-11 04:50:00,
2013-01-10 22:00:00,59.3,21.5,29.74,WSW,246,9.0,9.0,23,0.00,,,0.00,Wunderground v.1.15,2013-01-11 05:00:00,
2013-01-10 22:05:00,59.3,21.5,29.75,West,262,10.0,10.0,23,0.00,,,0.00,Wunderground v.1.15,2013-01-11 05:05:00,
2013-01-10 22:10:00,59.1,22.3,29.75,WNW,300,9.0,9.0,24,0.00,,,0.00,Wunderground v.1.15,2013-01-11 05:10:00,
2013-01-10 22:15:00,58.9,22.1,29.75,WSW,238,9.0,9.0,24,0.00,,,0.00,Wunderground v.1.15,2013-01-11 05:15:00,
2013-01-10 22:25:00,58.4,23.6,29.76,West,266,8.0,10.0,26,0.00,,,0.00,Wunderground v.1.15,2013-01-11 05:25:00,
2013-01-10 22:30:00,57.6,25.5,29.76,WNW,290,7.0,7.0,29,0.00,,,0.00,Wunderground v.1.15,2013-01-11 05:30:00,
2013-01-10 22:35:00,57.0,26.6,29.76,West,274,7.0,7.0,31,0.00,,,0.00,Wunderground v.1.15,2013-01-11 05:35:00,
2013-01-10 22:45:00,56.1,28.8,29.76,West,278,7.0,9.0,35,0.00,,,0.00,Wunderground v.1.15,2013-01-11 05:45:00,
2013-01-10 22:50:00,55.6,29.0,29.76,NW,307,6.0,7.0,36,0.00,,,0.00,Wunderground v.1.15,2013-01-11 05:50:00,
2013-01-10 22:55:00,55.3,30.1,29.76,WNW,290,6.0,7.0,38,0.00,,,0.00,Wunderground v.1.15,2013-01-11 05:55:00,
2013-01-10 23:00:00,55.0,31.1,29.77,NNW,345,6.0,9.0,40,0.00,,,0.00,Wunderground v.1.15,2013-01-11 06:00:00,
2013-01-10 23:10:00,54.0,34.2,29.77,NW,311,8.0,9.0,47,0.00,,,0.00,Wunderground v.1.15,2013-01-11 06:10:00,
2013-01-10 23:15:00,54.0,33.1,29.77,WNW,294,9.0,9.0,45,0.00,,,0.00,Wunderground v.1.15,2013-01-11 06:15:00,
2013-01-10 23:20:00,54.1,32.1,29.77,West,266,8.0,14.0,43,0.00,,,0.00,Wunderground v.1.15,2013-01-11 06:20:00,
2013-01-10 23:30:00,53.9,34.6,29.77,West,273,9.0,9.0,48,0.00,,,0.00,Wunderground v.1.15,2013-01-11 06:30:00,
2013-01-10 23:35:00,53.9,34.6,29.78,West,268,9.0,9.0,48,0.00,,,0.00,Wunderground v.1.15,2013-01-11 06:35:00,
2013-01-10 23:40:00,53.6,34.9,29.78,West,280,8.0,8.0,49,0.00,,,0.00,Wunderground v.1.15,2013-01-11 06:40:00,
2013-01-10 23:45:00,53.4,35.2,29.78,WSW,246,6.0,9.0,50,0.00,,,0.00,Wunderground v.1.15,2013-01-11 06:45:00,
2013-01-10 23:55:00,53.2,35.0,29.78,SSW,194,7.0,10.0,50,0.00,,,0.00,Wunderground v.1.15,2013-01-11 06:55:00,